When you browse on this site, cookies collect data to enhance your experience and personalize the content and advertising you see.
Visit our Privacy Policy to learn more. By continuing to use the site, you agree to this use of cookies and data.
  • In Romania
  • List of Countries
  • For 7 days
  • Water Temperature
  • Satellite Maps
  • Weather Map
  • Weather Widgets
  • user-avatar
    Login

    Hourly Weather Santiago del Estero

    Today, 24 June, Monday

    Time Temperature Precipitation Wind Pressure Humidity
    00:00 +20°C° 0 mm 1 mps 738 mmHg 72%
    01:00 +20°C° 0 mm 1 mps 738 mmHg 73%
    02:00 +18°C° 0 mm 2 mps 738 mmHg 73%
    03:00 +18°C° 0 mm 2 mps 737 mmHg 77%
    04:00 +17°C° 0 mm 2 mps 737 mmHg 81%
    05:00 +16°C° 0 mm 2 mps 736 mmHg 85%
    06:00 +16°C° 0 mm 2 mps 736 mmHg 86%
    07:00 +16°C° 0 mm 2 mps 736 mmHg 88%
    08:00 +16°C° 0 mm 2 mps 736 mmHg 90%
    09:00 +18°C° 0 mm 2 mps 736 mmHg 81%
    10:00 +21°C° 0 mm 1 mps 735 mmHg 73%
    11:00 +23°C° 0 mm 1 mps 735 mmHg 64%
    12:00 +25°C° 0 mm 2 mps 734 mmHg 59%
    13:00 +26°C° 0 mm 2 mps 733 mmHg 53%
    14:00 +27°C° 0 mm 3 mps 732 mmHg 48%
    15:00 +27°C° 0 mm 3 mps 731 mmHg 49%
    16:00 +27°C° 0 mm 3 mps 731 mmHg 51%
    17:00 +26°C° 0 mm 3 mps 730 mmHg 52%
    18:00 +25°C° 0 mm 3 mps 730 mmHg 56%
    19:00 +24°C° 0 mm 3 mps 730 mmHg 59%
    20:00 +22°C° 0 mm 3 mps 730 mmHg 62%
    21:00 +21°C° 0 mm 3 mps 730 mmHg 65%
    22:00 +20°C° 0 mm 2 mps 731 mmHg 68%
    23:00 +20°C° 0 mm 2 mps 731 mmHg 70%

    Tomorrow, 25 June, Tuesday

    Time Temperature Precipitation Wind Pressure Humidity
    00:00 +19°C° 0 mm 4 mps 732 mmHg 72%
    01:00 +19°C° 0 mm 6 mps 733 mmHg 73%
    02:00 +18°C° 0 mm 7 mps 734 mmHg 74%
    03:00 +18°C° 0 mm 8 mps 735 mmHg 73%
    04:00 +18°C° 0 mm 8 mps 737 mmHg 72%
    05:00 +18°C° 0 mm 9 mps 739 mmHg 71%
    06:00 +16°C° 0.2 mm 9 mps 741 mmHg 62%
    07:00 +13°C° 0.2 mm 10 mps 743 mmHg 52%
    08:00 +11°C° 0.2 mm 10 mps 745 mmHg 43%
    09:00 +11°C° 0 mm 9 mps 746 mmHg 38%
    10:00 +12°C° 0 mm 7 mps 747 mmHg 33%
    11:00 +13°C° 0 mm 6 mps 748 mmHg 28%
    12:00 +14°C° 0 mm 5 mps 747 mmHg 26%
    13:00 +14°C° 0 mm 5 mps 747 mmHg 24%
    14:00 +15°C° 0 mm 4 mps 747 mmHg 21%
    15:00 +15°C° 0 mm 4 mps 747 mmHg 23%
    16:00 +14°C° 0 mm 4 mps 747 mmHg 24%
    17:00 +14°C° 0 mm 3 mps 747 mmHg 25%
    18:00 +12°C° 0 mm 3 mps 747 mmHg 27%
    19:00 +12°C° 0 mm 2 mps 747 mmHg 28%
    20:00 +9°C° 0 mm 2 mps 747 mmHg 29%
    21:00 +10°C° 0 mm 1 mps 747 mmHg 31%
    22:00 +9°C° 0 mm 1 mps 747 mmHg 32%
    23:00 +8°C° 0 mm 1 mps 747 mmHg 33%

    Day after tomorrow, 26 June, Wednesday

    Time Temperature Precipitation Wind Pressure Humidity
    00:00 +8°C° 0 mm 1 mps 747 mmHg 33%
    01:00 +8°C° 0 mm 1 mps 746 mmHg 34%
    02:00 +6°C° 0 mm 2 mps 746 mmHg 34%
    03:00 +6°C° 0 mm 2 mps 746 mmHg 35%
    04:00 +6°C° 0 mm 2 mps 745 mmHg 36%
    05:00 +6°C° 0 mm 2 mps 745 mmHg 37%
    06:00 +6°C° 0 mm 2 mps 745 mmHg 38%
    07:00 +6°C° 0 mm 2 mps 745 mmHg 39%
    08:00 +5°C° 0 mm 3 mps 745 mmHg 40%
    09:00 +8°C° 0 mm 3 mps 745 mmHg 36%
    10:00 +10°C° 0 mm 4 mps 745 mmHg 31%
    11:00 +12°C° 0 mm 5 mps 744 mmHg 27%
    12:00 +13°C° 0 mm 5 mps 743 mmHg 25%
    13:00 +14°C° 0 mm 5 mps 742 mmHg 23%
    14:00 +15°C° 0 mm 5 mps 741 mmHg 21%
    15:00 +15°C° 0 mm 4 mps 740 mmHg 23%
    16:00 +15°C° 0 mm 4 mps 740 mmHg 26%
    17:00 +14°C° 0 mm 3 mps 739 mmHg 28%
    18:00 +13°C° 0 mm 4 mps 739 mmHg 31%
    19:00 +11°C° 0 mm 4 mps 739 mmHg 34%
    20:00 +10°C° 0 mm 4 mps 740 mmHg 37%
    21:00 +10°C° 0 mm 4 mps 740 mmHg 40%
    22:00 +8°C° 0 mm 4 mps 740 mmHg 43%
    23:00 +8°C° 0 mm 4 mps 740 mmHg 46%

    27 June, Thursday

    Time Temperature Precipitation Wind Pressure Humidity
    00:00 +8°C° 0 mm 4 mps 739 mmHg 49%
    01:00 +8°C° 0 mm 3 mps 739 mmHg 51%
    02:00 +7°C° 0 mm 3 mps 738 mmHg 53%
    03:00 +7°C° 0 mm 3 mps 738 mmHg 55%
    04:00 +7°C° 0 mm 3 mps 738 mmHg 56%
    05:00 +5°C° 0 mm 3 mps 737 mmHg 58%
    06:00 +7°C° 0 mm 3 mps 738 mmHg 58%
    07:00 +7°C° 0 mm 3 mps 738 mmHg 58%
    08:00 +6°C° 0 mm 4 mps 738 mmHg 58%
    09:00 +9°C° 0 mm 5 mps 738 mmHg 53%
    10:00 +11°C° 0 mm 6 mps 738 mmHg 49%
    11:00 +14°C° 0 mm 6 mps 737 mmHg 44%
    12:00 +16°C° 0 mm 6 mps 736 mmHg 42%
    13:00 +17°C° 0 mm 6 mps 735 mmHg 40%
    14:00 +20°C° 0 mm 6 mps 734 mmHg 38%
    15:00 +19°C° 0 mm 5 mps 733 mmHg 40%
    16:00 +19°C° 0 mm 4 mps 733 mmHg 42%
    17:00 +19°C° 0 mm 3 mps 733 mmHg 44%
    18:00 +18°C° 0 mm 3 mps 733 mmHg 49%
    19:00 +16°C° 0 mm 3 mps 733 mmHg 53%
    20:00 +14°C° 0 mm 3 mps 733 mmHg 58%
    21:00 +13°C° 0 mm 3 mps 733 mmHg 61%
    22:00 +13°C° 0 mm 3 mps 733 mmHg 65%
    23:00 +12°C° 0 mm 3 mps 733 mmHg 68%

    28 June, Friday

    Time Temperature Precipitation Wind Pressure Humidity
    00:00 +12°C° 0 mm 3 mps 733 mmHg 71%
    01:00 +12°C° 0 mm 2 mps 732 mmHg 75%
    02:00 +12°C° 0 mm 2 mps 732 mmHg 78%
    03:00 +10°C° 0 mm 2 mps 732 mmHg 82%
    04:00 +11°C° 0 mm 1 mps 731 mmHg 86%
    05:00 +10°C° 0 mm 1 mps 731 mmHg 90%
    06:00 +11°C° 0 mm 1 mps 731 mmHg 91%
    07:00 +11°C° 0 mm 1 mps 732 mmHg 92%
    08:00 +12°C° 0 mm 1 mps 732 mmHg 93%
    09:00 +14°C° 0 mm 1 mps 732 mmHg 84%
    10:00 +16°C° 0 mm 1 mps 732 mmHg 74%
    11:00 +19°C° 0 mm 1 mps 732 mmHg 64%
    12:00 +21°C° 0 mm 1 mps 732 mmHg 58%
    13:00 +22°C° 0 mm 1 mps 731 mmHg 51%
    14:00 +22°C° 0 mm 0 mps 731 mmHg 44%
    15:00 +23°C° 0 mm 1 mps 731 mmHg 47%
    16:00 +23°C° 0 mm 1 mps 732 mmHg 50%
    17:00 +22°C° 0 mm 1 mps 732 mmHg 53%
    18:00 +20°C° 0 mm 1 mps 733 mmHg 59%
    19:00 +19°C° 0 mm 1 mps 733 mmHg 65%
    20:00 +16°C° 0 mm 1 mps 734 mmHg 72%
    21:00 +16°C° 0 mm 1 mps 734 mmHg 72%
    22:00 +16°C° 0 mm 2 mps 735 mmHg 71%
    23:00 +16°C° 0 mm 2 mps 735 mmHg 71%

    29 June, Saturday

    Time Temperature Precipitation Wind Pressure Humidity
    00:00 +16°C° 0 mm 3 mps 736 mmHg 70%
    01:00 +15°C° 0 mm 4 mps 737 mmHg 69%
    02:00 +15°C° 0 mm 5 mps 738 mmHg 67%
    03:00 +14°C° 0 mm 5 mps 739 mmHg 65%
    04:00 +13°C° 0 mm 6 mps 740 mmHg 62%
    05:00 +11°C° 0 mm 6 mps 741 mmHg 59%
    06:00 +12°C° 0 mm 5 mps 742 mmHg 59%
    07:00 +11°C° 0 mm 4 mps 744 mmHg 59%
    08:00 +11°C° 0 mm 4 mps 745 mmHg 59%
    09:00 +12°C° 0 mm 4 mps 746 mmHg 51%
    10:00 +14°C° 0 mm 5 mps 746 mmHg 43%
    11:00 +15°C° 0 mm 5 mps 747 mmHg 35%
    12:00 +16°C° 0 mm 5 mps 747 mmHg 30%
    13:00 +16°C° 0 mm 6 mps 746 mmHg 26%
    14:00 +17°C° 0 mm 6 mps 746 mmHg 22%
    15:00 +16°C° 0 mm 5 mps 746 mmHg 23%
    16:00 +17°C° 0 mm 4 mps 747 mmHg 24%
    17:00 +15°C° 0 mm 4 mps 747 mmHg 25%
    18:00 +13°C° 0 mm 4 mps 748 mmHg 28%
    19:00 +12°C° 0 mm 3 mps 748 mmHg 30%
    20:00 +11°C° 0 mm 3 mps 749 mmHg 32%
    21:00 +10°C° 0 mm 3 mps 750 mmHg 34%
    22:00 +9°C° 0 mm 3 mps 750 mmHg 37%
    23:00 +9°C° 0 mm 3 mps 750 mmHg 39%
    Show more